DECAYED

FENGYUN 1C DEB, 30490 (Decayed)

Orbit data source: Space-Track

FENGYUN 1C DEB, 30490 was space debris in LEO originally from a launch on Mon, 10 May 1999 UTC launched from the Taiyaun Space Center, China (TSC). Fengyun 1C debris stems from the Chinese weather satellite Fengyun-1C, which was intentionally destroyed by a Chinese anti-satellite missile in 2007. This event dramatically increased the amount of space debris, with thousands of trackable fragments posing hazards to satellites and human spaceflight. The Fengyun 1C debris cloud has become a focal point in discussions about space sustainability and the need for international regulations to prevent the creation of new debris.

Not visible in the next 10 days
Identifier
30490, 1999-025AHC
Orbit
Decayed
Country
Flag of CNCN / PRC
Related business
Manufacturer
Unknown
Mission
Decayed spacecraft
Bus & Motor
Unknown
Mass
Unknown
Launch date (UTC)
1999-05-10 (27 years ago)
Launch vehicle
Unknown
Launch site
Taiyaun Space Center, China (TSC)
Object type
Payload
Rocket body
Debris
Shape & HBR
Unknown shape, 0.1 m
Radar Cross Section
Small (<0.1 m²)

Expand to show TLE details & history
Last TLE update: 3 months ago

TLE from 3 months ago
0 FENGYUN 1C DEB
1 30490U 99025AHC 26066.69573927  .16182163  30710-5  50678-2 0  9991
2 30490  98.3284 216.2135 0018998 288.0742  71.8477 16.26001882  8015
Epoch: 2026-03-07T16:41Z
TLE epoch observation values (Epoch: 2026-03-07T16:41:51.872Z)
Latitude
-0.00009°
Longitude
160.33369°
Altitude
202.635 km
Speed
7.787 km/s
True Right ascension
14h 24m 51s
True Declination
0° 00' 00"
Sunlit
Object was in full shadow at epoch
Visualization orbit readout
Latitude
Unknown
Longitude
Unknown
Altitude
Unknown
Speed
Unknown
Apparent Right ascension
Unknown
Apparent Declination
Unknown
Sunlit
N/A
Visualization observer readout
Local Sidereal Time
21:36:29
Azimuth
Unknown
Elevation
Unknown
Doppler factor
Unknown
Orbital elements
Apogee altitude
212.674 km
Perigee altitude
187.679 km
Semi-major axis
6,578.313 km
Eccentricity
0.0019
Inclination
98.3284°
RAAN
216.2135°
Arg. of periapsis
288.0742°
True anomaly
72.05472°
Mean anomaly
71.8477°
Eccentric anomaly
71.95119°
Mean motion
4.06791 °/min
Orbital period
88.5 mins
BSTAR
0.0050678
Loading maneuver chart data...
Computing Atmospheric mass density...

Documentation

Showing up to 5 results
|